Time,TemperatureF,DewpointF,PressureIn,WindDirection,WindDirectionDegrees,WindSpeedMPH,WindSpeedGustMPH,Humidity,HourlyPrecipIn,Conditions,Clouds,dailyrainin,SoftwareType,DateUTC
2013-05-15 00:07:00,66.7,61.7,29.82,West,270,0.0,-999.0,84,-99.99,,,0.00,Acu-Link.com,2013-05-15 04:07:00,
2013-05-15 00:22:00,65.5,61.2,29.82,West,270,0.0,-999.0,86,-99.99,,,0.00,Acu-Link.com,2013-05-15 04:22:00,
2013-05-15 00:37:00,64.2,60.9,29.83,West,270,0.0,-999.0,89,-99.99,,,0.00,Acu-Link.com,2013-05-15 04:37:00,
2013-05-15 00:52:00,63.0,60.3,29.82,NNE,22,0.0,-999.0,91,-99.99,,,0.00,Acu-Link.com,2013-05-15 04:52:00,
2013-05-15 01:08:00,62.2,60.1,29.82,NNE,22,0.0,-999.0,93,-99.99,,,0.00,Acu-Link.com,2013-05-15 05:08:00,
2013-05-15 01:23:00,61.9,60.2,29.83,West,270,0.0,-999.0,94,-99.99,,,0.00,Acu-Link.com,2013-05-15 05:23:00,
2013-05-15 01:47:00,61.2,60.0,29.82,West,270,0.0,-999.0,96,-99.99,,,0.00,Acu-Link.com,2013-05-15 05:47:00,
2013-05-15 02:02:00,60.1,59.5,29.82,SW,225,0.0,-999.0,98,-99.99,,,0.00,Acu-Link.com,2013-05-15 06:02:00,
2013-05-15 02:17:00,59.5,58.9,29.82,NW,315,0.0,-999.0,98,-99.99,,,0.00,Acu-Link.com,2013-05-15 06:17:00,
2013-05-15 02:32:00,59.2,58.6,29.82,West,270,0.0,-999.0,98,-99.99,,,0.00,Acu-Link.com,2013-05-15 06:32:00,
2013-05-15 02:47:00,59.2,58.6,29.81,NNW,337,0.0,-999.0,98,-99.99,,,0.00,Acu-Link.com,2013-05-15 06:47:00,
2013-05-15 03:02:00,58.6,58.0,29.83,NW,315,0.0,-999.0,98,-99.99,,,0.00,Acu-Link.com,2013-05-15 07:02:00,
2013-05-15 03:17:00,58.1,57.5,29.82,NE,45,0.0,-999.0,98,-99.99,,,0.00,Acu-Link.com,2013-05-15 07:17:00,
2013-05-15 03:33:00,57.6,57.0,29.82,SSW,202,0.0,-999.0,98,-99.99,,,0.00,Acu-Link.com,2013-05-15 07:33:00,
2013-05-15 03:48:00,57.4,56.8,29.83,South,180,0.0,-999.0,98,-99.99,,,0.00,Acu-Link.com,2013-05-15 07:48:00,
2013-05-15 04:03:00,57.2,56.6,29.83,South,180,0.0,-999.0,98,-99.99,,,0.00,Acu-Link.com,2013-05-15 08:03:00,
2013-05-15 04:19:00,57.4,56.8,29.83,South,180,0.0,-999.0,98,-99.99,,,0.00,Acu-Link.com,2013-05-15 08:19:00,
2013-05-15 04:34:00,56.8,56.2,29.83,ESE,112,0.0,-999.0,98,-99.99,,,0.00,Acu-Link.com,2013-05-15 08:34:00,
2013-05-15 04:49:00,56.7,56.1,29.84,South,180,0.0,-999.0,98,-99.99,,,0.00,Acu-Link.com,2013-05-15 08:49:00,
2013-05-15 05:04:00,57.6,57.0,29.84,ESE,112,0.0,-999.0,98,-99.99,,,0.00,Acu-Link.com,2013-05-15 09:04:00,
2013-05-15 05:19:00,57.0,56.4,29.84,NE,45,0.0,-999.0,98,-99.99,,,0.00,Acu-Link.com,2013-05-15 09:19:00,
2013-05-15 05:34:00,56.5,55.9,29.85,NW,315,0.0,-999.0,98,-99.99,,,0.00,Acu-Link.com,2013-05-15 09:34:00,
2013-05-15 05:49:00,55.9,55.3,29.85,WNW,292,0.0,-999.0,98,-99.99,,,0.00,Acu-Link.com,2013-05-15 09:49:00,
2013-05-15 06:04:00,55.6,55.0,29.86,West,270,0.0,-999.0,98,-99.99,,,0.00,Acu-Link.com,2013-05-15 10:04:00,
2013-05-15 06:19:00,55.9,55.3,29.86,South,180,0.0,-999.0,98,-99.99,,,0.00,Acu-Link.com,2013-05-15 10:19:00,
2013-05-15 06:34:00,55.4,54.8,29.86,East,90,0.0,-999.0,98,-99.99,,,0.00,Acu-Link.com,2013-05-15 10:34:00,
2013-05-15 06:50:00,55.0,54.4,29.87,WNW,292,0.0,-999.0,98,-99.99,,,0.00,Acu-Link.com,2013-05-15 10:50:00,
2013-05-15 07:05:00,55.4,54.8,29.88,South,180,0.0,-999.0,98,-99.99,,,0.00,Acu-Link.com,2013-05-15 11:05:00,
2013-05-15 07:20:00,57.7,57.1,29.88,SE,135,0.0,-999.0,98,-99.99,,,0.00,Acu-Link.com,2013-05-15 11:20:00,
2013-05-15 07:35:00,60.8,60.2,29.88,NE,45,0.0,-999.0,98,-99.99,,,0.00,Acu-Link.com,2013-05-15 11:35:00,
2013-05-15 08:05:00,66.2,63.2,29.89,ESE,112,0.0,-999.0,90,-99.99,,,0.00,Acu-Link.com,2013-05-15 12:05:00,
2013-05-15 08:20:00,68.0,63.6,29.89,SW,225,2.7,-999.0,86,-99.99,,,0.00,Acu-Link.com,2013-05-15 12:20:00,
2013-05-15 08:35:00,68.5,63.8,29.90,SE,135,0.0,-999.0,85,-99.99,,,0.00,Acu-Link.com,2013-05-15 12:35:00,
2013-05-15 08:50:00,68.5,64.8,29.89,SSE,157,0.0,-999.0,88,-99.99,,,0.00,Acu-Link.com,2013-05-15 12:50:00,
2013-05-15 09:06:00,73.0,67.2,29.89,NE,45,0.0,-999.0,82,-99.99,,,0.00,Acu-Link.com,2013-05-15 13:06:00,
2013-05-15 09:51:00,77.2,64.1,29.89,NNW,337,1.7,-999.0,64,-99.99,,,0.00,Acu-Link.com,2013-05-15 13:51:00,
2013-05-15 10:06:00,77.9,64.7,29.90,NNW,337,1.1,-999.0,64,-99.99,,,0.00,Acu-Link.com,2013-05-15 14:06:00,
2013-05-15 10:21:00,77.5,64.3,29.89,West,270,0.0,-999.0,64,-99.99,,,0.00,Acu-Link.com,2013-05-15 14:21:00,
2013-05-15 10:36:00,78.4,64.7,29.89,SSE,157,3.7,-999.0,63,-99.99,,,0.00,Acu-Link.com,2013-05-15 14:36:00,
2013-05-15 10:51:00,79.7,65.0,29.88,WNW,292,1.7,-999.0,61,-99.99,,,0.00,Acu-Link.com,2013-05-15 14:51:00,
2013-05-15 11:06:00,80.6,65.4,29.87,SW,225,1.7,-999.0,60,-99.99,,,0.00,Acu-Link.com,2013-05-15 15:06:00,
2013-05-15 11:22:00,80.4,65.2,29.87,East,90,2.2,-999.0,60,-99.99,,,0.00,Acu-Link.com,2013-05-15 15:22:00,
2013-05-15 11:37:00,82.2,65.4,29.87,SW,225,2.2,-999.0,57,-99.99,,,0.00,Acu-Link.com,2013-05-15 15:37:00,
2013-05-15 11:52:00,82.4,66.1,29.87,North,0,1.1,-999.0,58,-99.99,,,0.00,Acu-Link.com,2013-05-15 15:52:00,
2013-05-15 12:07:00,82.8,66.5,29.87,North,0,2.7,-999.0,58,-99.99,,,0.00,Acu-Link.com,2013-05-15 16:07:00,
2013-05-15 12:22:00,83.3,65.9,29.86,North,0,4.2,-999.0,56,-99.99,,,0.00,Acu-Link.com,2013-05-15 16:22:00,
2013-05-15 12:37:00,84.2,66.3,29.86,WSW,247,0.0,-999.0,55,-99.99,,,0.00,Acu-Link.com,2013-05-15 16:37:00,
2013-05-15 12:52:00,84.9,66.4,29.85,South,180,3.2,-999.0,54,-99.99,,,0.00,Acu-Link.com,2013-05-15 16:52:00,
2013-05-15 13:07:00,85.6,66.5,29.84,NNE,22,3.7,-999.0,53,-99.99,,,0.00,Acu-Link.com,2013-05-15 17:07:00,
2013-05-15 13:22:00,86.4,66.1,29.83,East,90,1.1,-999.0,51,-99.99,,,0.00,Acu-Link.com,2013-05-15 17:22:00,
2013-05-15 13:53:00,85.8,64.4,29.83,North,0,3.7,-999.0,49,-99.99,,,0.00,Acu-Link.com,2013-05-15 17:53:00,
2013-05-15 14:08:00,87.4,67.0,29.82,NNE,22,2.7,-999.0,51,-99.99,,,0.00,Acu-Link.com,2013-05-15 18:08:00,
2013-05-15 14:23:00,86.5,66.2,29.81,North,0,2.7,-999.0,51,-99.99,,,0.00,Acu-Link.com,2013-05-15 18:23:00,
2013-05-15 14:53:00,87.6,67.2,29.80,NW,315,2.2,-999.0,51,-99.99,,,0.00,Acu-Link.com,2013-05-15 18:53:00,
2013-05-15 15:09:00,87.8,66.2,29.79,NNE,22,3.7,-999.0,49,-99.99,,,0.00,Acu-Link.com,2013-05-15 19:09:00,
2013-05-15 15:24:00,88.2,68.3,29.78,NE,45,1.1,-999.0,52,-99.99,,,0.00,Acu-Link.com,2013-05-15 19:24:00,
2013-05-15 15:39:00,89.1,66.2,29.77,SE,135,2.2,-999.0,47,-99.99,,,0.00,Acu-Link.com,2013-05-15 19:39:00,
2013-05-15 15:54:00,88.5,66.3,29.77,West,270,2.7,-999.0,48,-99.99,,,0.00,Acu-Link.com,2013-05-15 19:54:00,
2013-05-15 16:09:00,88.7,67.0,29.76,South,180,2.7,-999.0,49,-99.99,,,0.00,Acu-Link.com,2013-05-15 20:09:00,
2013-05-15 16:24:00,88.5,66.9,29.76,NNE,22,7.8,-999.0,49,-99.99,,,0.00,Acu-Link.com,2013-05-15 20:24:00,
2013-05-15 16:39:00,88.3,63.6,29.74,West,270,5.8,-999.0,44,-99.99,,,0.00,Acu-Link.com,2013-05-15 20:39:00,
2013-05-15 16:54:00,88.5,64.4,29.74,North,0,1.7,-999.0,45,-99.99,,,0.00,Acu-Link.com,2013-05-15 20:54:00,
2013-05-15 17:09:00,89.1,65.0,29.74,North,0,3.7,-999.0,45,-99.99,,,0.00,Acu-Link.com,2013-05-15 21:09:00,
2013-05-15 17:24:00,88.7,63.3,29.74,SW,225,2.2,-999.0,43,-99.99,,,0.00,Acu-Link.com,2013-05-15 21:24:00,
2013-05-15 17:40:00,91.6,65.2,29.73,ENE,67,2.2,-999.0,42,-99.99,,,0.00,Acu-Link.com,2013-05-15 21:40:00,
2013-05-15 17:55:00,90.0,61.7,29.73,SSW,202,4.7,-999.0,39,-99.99,,,0.00,Acu-Link.com,2013-05-15 21:55:00,
2013-05-15 18:10:00,91.8,63.3,29.72,West,270,2.2,-999.0,39,-99.99,,,0.00,Acu-Link.com,2013-05-15 22:10:00,
2013-05-15 18:25:00,90.5,62.8,29.72,NE,45,0.0,-999.0,40,-99.99,,,0.00,Acu-Link.com,2013-05-15 22:25:00,
2013-05-15 18:40:00,89.2,63.1,29.71,SSE,157,1.7,-999.0,42,-99.99,,,0.00,Acu-Link.com,2013-05-15 22:40:00,
2013-05-15 18:55:00,87.1,61.9,29.72,SSE,157,1.7,-999.0,43,-99.99,,,0.00,Acu-Link.com,2013-05-15 22:55:00,
2013-05-15 19:10:00,84.7,62.2,29.73,SSW,202,2.2,-999.0,47,-99.99,,,0.00,Acu-Link.com,2013-05-15 23:10:00,
2013-05-15 19:40:00,81.3,60.9,29.71,West,270,0.0,-999.0,50,-99.99,,,0.00,Acu-Link.com,2013-05-15 23:40:00,
2013-05-15 19:56:00,80.4,62.2,29.71,SE,135,0.0,-999.0,54,-99.99,,,0.00,Acu-Link.com,2013-05-15 23:56:00,
2013-05-15 20:11:00,79.2,62.1,29.72,SW,225,1.7,-999.0,56,-99.99,,,0.00,Acu-Link.com,2013-05-16 00:11:00,
2013-05-15 20:26:00,78.1,62.1,29.72,South,180,1.7,-999.0,58,-99.99,,,0.00,Acu-Link.com,2013-05-16 00:26:00,
2013-05-15 20:41:00,77.0,63.0,29.72,NNE,22,0.0,-999.0,62,-99.99,,,0.00,Acu-Link.com,2013-05-16 00:41:00,
2013-05-15 20:56:00,74.5,64.5,29.73,SSW,202,0.0,-999.0,71,-99.99,,,0.00,Acu-Link.com,2013-05-16 00:56:00,
2013-05-15 21:11:00,72.9,62.9,29.74,SW,225,0.0,-999.0,71,-99.99,,,0.00,Acu-Link.com,2013-05-16 01:11:00,
2013-05-15 21:41:00,69.8,63.0,29.74,SSW,202,1.7,-999.0,79,-99.99,,,0.00,Acu-Link.com,2013-05-16 01:41:00,
2013-05-15 21:56:00,68.9,62.1,29.75,SSW,202,0.0,-999.0,79,-99.99,,,0.00,Acu-Link.com,2013-05-16 01:56:00,
2013-05-15 22:27:00,66.7,61.0,29.76,South,180,0.0,-999.0,82,-99.99,,,0.00,Acu-Link.com,2013-05-16 02:27:00,
2013-05-15 22:57:00,65.8,61.5,29.77,South,180,0.0,-999.0,86,-99.99,,,0.00,Acu-Link.com,2013-05-16 02:57:00,
2013-05-15 23:12:00,65.3,61.3,29.76,West,270,0.0,-999.0,87,-99.99,,,0.00,Acu-Link.com,2013-05-16 03:12:00,
2013-05-15 23:27:00,64.2,60.9,29.76,West,270,0.0,-999.0,89,-99.99,,,0.00,Acu-Link.com,2013-05-16 03:27:00,
2013-05-15 23:43:00,63.5,60.8,29.76,NNW,337,0.0,-999.0,91,-99.99,,,0.00,Acu-Link.com,2013-05-16 03:43:00,
2013-05-15 23:58:00,62.6,60.5,29.76,NNW,337,0.0,-999.0,93,-99.99,,,0.00,Acu-Link.com,2013-05-16 03:58:00,